Regional Weather Roundup
Issued by NWS

Home | Current Version | Previous Version | Graphics & Text | Print | Product List | Glossary Off
Versions: 1 2 3 4 5 6 7 8 9 10 11 12 13 14 15 16 17 18 19 20 21 22 23 24 25 26 27 28 29 30 31 32 33 34 35 36 37 38 39 40 41 42 43 44 45 46 47 48 49 50

151
ASUS43 KTOP 262108
RWRKS

WEATHER ROUNDUP FOR KANSAS
NATIONAL WEATHER SERVICE GOODLAND KS
400 PM CDT WED JUL 26 2017

NOTE:  "FAIR" INDICATES FEW OR NO CLOUDS BELOW 12,000 FEET WITH NO
SIGNIFICANT WEATHER AND/OR OBSTRUCTIONS TO VISIBILITY.

KSZ001>006-013>018-027>032-041>047-262200-
NORTHWEST KANSAS

CITY           SKY/WX    TMP DP  RH WIND       PRES   REMARKS
GOODLAND       MOSUNNY   83  65  54 N17G28    30.10S
HAYS           CLOUDY    96  69  41 E6        29.91F HX 102
HILL CITY      PTSUNNY   91  71  51 N16G22    29.97R HX  97
RUSSELL        CLOUDY    92  72  51 SE8       29.91F HX  99
$$

KSZ061>065-074>080-084>089-262200-
SOUTHWEST KANSAS

CITY           SKY/WX    TMP DP  RH WIND       PRES   REMARKS
DODGE CITY     CLOUDY    93  66  40 S6        29.98F HX  96
ELKHART          N/A     96  57  27 N6          N/A  HX  95
GARDEN CITY    SUNNY     91  67  44 N10       30.02S
GREAT BEND     CLOUDY    92  67  43 SW14      29.93F HX  95
LIBERAL        CLOUDY    96  64  34 W8        30.00F HX  98
PRATT          CLOUDY    79  69  71 CALM      29.95S
$$

KSZ066>073-081>083-090>101-262200-
SOUTHEAST KANSAS

CITY           SKY/WX    TMP DP  RH WIND       PRES   REMARKS
CHANUTE        CLOUDY    93  73  52 S13       29.97F HX 102
COFFEYVILLE    CLOUDY    93  74  53 S15       29.95F HX 103
HUTCHINSON     CLOUDY    82  72  71 S8        29.93S
MEDICINE LODGE   N/A     98  63  31 S16G24    29.89F HX 100
NEWTON         TSTM      80  74  81 NE7G23    29.96R
PARSONS        CLOUDY    94  74  52 S12       29.97F HX 104
WICHITA INTL   CLOUDY    95  66  38 S13G26    29.91F THUNDER HX  98
WICHITA JABRA  CLOUDY    96  70  42 S15G22    29.92F HX 102
WICHITA MCCONL PTSUNNY   96  68  39 S17       29.92F HX 100
WINFIELD       CLOUDY    96  69  41 S15G23    29.94F HX 102
$$

KSZ007>012-019>026-033>040-048>060-102>105-262200-
NORTHEAST KANSAS

CITY           SKY/WX    TMP DP  RH WIND       PRES   REMARKS
CONCORDIA      CLOUDY    81  74  79 CALM      29.95S
EMPORIA        CLOUDY    84  74  71 NE8       29.98R
LAWRENCE       RAIN      78  78 100 SW12      30.01R VSB 1
MANHATTAN      LGT RAIN  78  76  93 S8        29.93F
MARYSVILLE     CLOUDY    79  73  83 W3        29.98R
OLATHE IND     LGT RAIN  81  76  84 SE6       30.00S
OLATHE EXE     CLOUDY    80  76  87 S5        30.00R
SALINA         CLOUDY    84  76  76 E15       29.91F
TOPEKA BILLARD LGT RAIN  76  75  97 S8        29.97F
TOPEKA FORBES  RAIN      77  76  96 SE7       29.99F FOG
$$




USA.gov is the U.S. government's official web portal to all federal, state and local government web resources and services.